Location: Kalberh�ni
(46.4610°N, 7.2453°E)
Time: 18:08:33
(UTC+00:00)

Meteor 2-1 Rocket - Pass Details

Date: 29 October 2021
Orbit: 830 x 906 km, 81.3° (Epoch: 28 November)

Event Time Altitude Azimuth Distance (km) Brightness Sun altitude
Rises 20:47:58 0° 255° (WSW) 3,400 7.7 -45.1°
Reaches altitude 10° 20:53:24 10° 299° (WNW) 2,455 7.2 -45.9°
Maximum altitude 20:53:56 10° 305° (NW) 2,445 7.2 -46.0°
Drops below altitude 10° 20:54:28 10° 310° (NW) 2,454 7.2 -46.0°
Sets 20:59:55 0° 354° (N) 3,387 7.8 -46.8°
